Time,TemperatureF,DewpointF,PressureIn,WindDirection,WindDirectionDegrees,WindSpeedMPH,WindSpeedGustMPH,Humidity,HourlyPrecipIn,Conditions,Clouds,dailyrainin,SoftwareType,DateUTC
2013-05-03 00:03:00,71.0,69.0,29.81,East,97,7.0,13.0,93,-99.99,,,-99.99,,2013-05-03 04:03:00,
2013-05-03 00:13:00,72.0,69.0,29.81,East,93,5.0,9.0,91,-99.99,,,-99.99,,2013-05-03 04:13:00,
2013-05-03 00:23:00,72.0,69.0,29.81,East,93,5.0,9.0,91,-99.99,,,-99.99,,2013-05-03 04:23:00,
2013-05-03 00:32:00,71.0,69.0,29.81,ENE,59,3.0,7.0,90,-99.99,,,-99.99,,2013-05-03 04:32:00,
2013-05-03 00:43:00,71.0,69.0,29.81,ENE,59,3.0,7.0,90,-99.99,,,-99.99,,2013-05-03 04:43:00,
2013-05-03 00:53:00,72.0,69.0,29.80,ESE,115,4.0,48.0,91,-99.99,,,-99.99,,2013-05-03 04:53:00,
2013-05-03 01:03:00,72.0,69.0,29.80,ESE,115,4.0,48.0,91,-99.99,,,-99.99,,2013-05-03 05:03:00,
2013-05-03 01:12:00,72.0,69.0,29.80,ENE,71,6.0,11.0,90,-99.99,,,-99.99,,2013-05-03 05:12:00,
2013-05-03 01:22:00,72.0,69.0,29.80,ENE,71,6.0,11.0,90,-99.99,,,-99.99,,2013-05-03 05:22:00,
2013-05-03 01:32:00,72.0,69.0,29.78,ESE,105,7.0,10.0,90,-99.99,,,-99.99,,2013-05-03 05:32:00,
2013-05-03 01:42:00,72.0,69.0,29.77,ESE,105,6.0,10.0,91,-99.99,,,-99.99,,2013-05-03 05:42:00,
2013-05-03 01:52:00,72.0,69.0,29.77,East,91,3.0,7.0,92,-99.99,,,-99.99,,2013-05-03 05:52:00,
2013-05-03 02:02:00,72.0,69.0,29.77,East,91,3.0,7.0,92,-99.99,,,-99.99,,2013-05-03 06:02:00,
2013-05-03 02:12:00,71.0,69.0,29.76,WSW,241,2.0,3.0,93,-99.99,,,-99.99,,2013-05-03 06:12:00,
2013-05-03 02:21:00,71.0,69.0,29.76,East,92,4.0,6.0,93,-99.99,,,-99.99,,2013-05-03 06:21:00,
2013-05-03 02:32:00,70.0,69.0,29.75,East,92,4.0,6.0,96,-99.99,,,-99.99,,2013-05-03 06:32:00,
2013-05-03 02:42:00,70.0,69.0,29.73,NNW,343,6.0,8.0,97,-99.99,,,-99.99,,2013-05-03 06:42:00,
2013-05-03 02:52:00,70.0,69.0,29.73,West,278,5.0,8.0,98,-99.99,,,-99.99,,2013-05-03 06:52:00,
2013-05-03 03:01:00,70.0,69.0,29.73,West,278,5.0,8.0,98,-99.99,,,-99.99,,2013-05-03 07:01:00,
2013-05-03 03:11:00,70.0,70.0,29.72,NW,325,6.0,8.0,98,-99.99,,,-99.99,,2013-05-03 07:11:00,
2013-05-03 03:22:00,70.0,70.0,29.72,NW,325,6.0,8.0,98,-99.99,,,-99.99,,2013-05-03 07:22:00,
2013-05-03 03:32:00,71.0,70.0,29.72,WSW,253,8.0,11.0,98,-99.99,,,-99.99,,2013-05-03 07:32:00,
2013-05-03 03:42:00,71.0,70.0,29.72,ESE,115,8.0,12.0,97,-99.99,,,-99.99,,2013-05-03 07:42:00,
2013-05-03 03:52:00,71.0,70.0,29.72,SE,133,8.0,11.0,97,-99.99,,,-99.99,,2013-05-03 07:52:00,
2013-05-03 04:02:00,71.0,70.0,29.72,SE,133,8.0,11.0,97,-99.99,,,-99.99,,2013-05-03 08:02:00,
2013-05-03 04:12:00,71.0,70.0,29.72,NW,310,8.0,13.0,97,-99.99,,,-99.99,,2013-05-03 08:12:00,
2013-05-03 04:21:00,71.0,70.0,29.72,NW,310,8.0,13.0,97,-99.99,,,-99.99,,2013-05-03 08:21:00,
2013-05-03 04:32:00,71.0,70.0,29.72,NW,310,8.0,13.0,97,-99.99,,,-99.99,,2013-05-03 08:32:00,
2013-05-03 04:42:00,70.0,70.0,29.72,WNW,303,8.0,12.0,97,-99.99,,,-99.99,,2013-05-03 08:42:00,
2013-05-03 04:53:00,70.0,69.0,29.73,NW,311,4.0,7.0,98,-99.99,,,-99.99,,2013-05-03 08:53:00,
2013-05-03 05:01:00,70.0,69.0,29.73,NW,311,4.0,7.0,98,-99.99,,,-99.99,,2013-05-03 09:01:00,
2013-05-03 05:12:00,70.0,69.0,29.72,West,259,4.0,6.0,98,-99.99,,,-99.99,,2013-05-03 09:12:00,
2013-05-03 05:21:00,70.0,69.0,29.72,West,259,4.0,6.0,98,-99.99,,,-99.99,,2013-05-03 09:21:00,
2013-05-03 05:32:00,70.0,69.0,29.73,WSW,246,6.0,8.0,98,-99.99,,,-99.99,,2013-05-03 09:32:00,
2013-05-03 05:42:00,70.0,69.0,29.72,SW,235,4.0,6.0,98,-99.99,,,-99.99,,2013-05-03 09:42:00,
2013-05-03 05:53:00,69.0,69.0,29.73,WSW,248,4.0,7.0,98,-99.99,,,-99.99,,2013-05-03 09:53:00,
2013-05-03 06:03:00,69.0,69.0,29.73,WSW,248,4.0,7.0,98,-99.99,,,-99.99,,2013-05-03 10:03:00,
2013-05-03 06:13:00,69.0,69.0,29.73,WSW,241,8.0,15.0,98,-99.99,,,-99.99,,2013-05-03 10:13:00,
2013-05-03 06:22:00,69.0,69.0,29.73,WSW,241,8.0,15.0,98,-99.99,,,-99.99,,2013-05-03 10:22:00,
2013-05-03 06:32:00,68.0,68.0,29.74,WSW,256,6.0,11.0,98,-99.99,,,-99.99,,2013-05-03 10:32:00,
2013-05-03 06:42:00,68.0,68.0,29.75,West,272,4.0,6.0,99,-99.99,,,-99.99,,2013-05-03 10:42:00,
2013-05-03 06:52:00,68.0,67.0,29.75,West,268,4.0,6.0,99,-99.99,,,-99.99,,2013-05-03 10:52:00,
2013-05-03 07:02:00,68.0,67.0,29.75,West,268,4.0,6.0,99,-99.99,,,-99.99,,2013-05-03 11:02:00,
2013-05-03 07:11:00,67.0,67.0,29.75,West,276,4.0,6.0,99,-99.99,,,-99.99,,2013-05-03 11:11:00,
2013-05-03 07:22:00,67.0,67.0,29.75,West,276,4.0,6.0,99,-99.99,,,-99.99,,2013-05-03 11:22:00,
2013-05-03 07:32:00,67.0,67.0,29.75,West,276,4.0,6.0,99,-99.99,,,-99.99,,2013-05-03 11:32:00,
2013-05-03 07:42:00,67.0,67.0,29.75,West,263,3.0,6.0,99,-99.99,,,-99.99,,2013-05-03 11:42:00,
2013-05-03 07:52:00,68.0,68.0,29.75,WSW,240,5.0,9.0,99,-99.99,,,-99.99,,2013-05-03 11:52:00,
2013-05-03 08:02:00,68.0,68.0,29.75,WSW,240,5.0,9.0,99,-99.99,,,-99.99,,2013-05-03 12:02:00,
2013-05-03 08:12:00,68.0,68.0,29.75,WSW,237,7.0,11.0,99,-99.99,,,-99.99,,2013-05-03 12:12:00,
2013-05-03 08:22:00,68.0,68.0,29.75,WSW,237,7.0,11.0,99,-99.99,,,-99.99,,2013-05-03 12:22:00,
2013-05-03 08:32:00,68.0,68.0,29.75,WSW,244,7.0,11.0,99,-99.99,,,-99.99,,2013-05-03 12:32:00,
2013-05-03 08:42:00,68.0,68.0,29.75,WSW,237,7.0,13.0,99,-99.99,,,-99.99,,2013-05-03 12:42:00,
2013-05-03 08:52:00,69.0,69.0,29.75,WSW,240,8.0,12.0,99,-99.99,,,-99.99,,2013-05-03 12:52:00,
2013-05-03 09:01:00,69.0,69.0,29.75,WSW,240,8.0,12.0,99,-99.99,,,-99.99,,2013-05-03 13:01:00,
2013-05-03 09:11:00,69.0,69.0,29.75,WSW,249,11.0,16.0,98,-99.99,,,-99.99,,2013-05-03 13:11:00,
2013-05-03 09:22:00,69.0,69.0,29.75,WSW,249,11.0,16.0,98,-99.99,,,-99.99,,2013-05-03 13:22:00,
2013-05-03 09:32:00,70.0,69.0,29.76,WSW,253,10.0,16.0,97,-99.99,,,-99.99,,2013-05-03 13:32:00,
2013-05-03 09:42:00,71.0,69.0,29.76,WSW,255,8.0,13.0,94,-99.99,,,-99.99,,2013-05-03 13:42:00,
2013-05-03 09:52:00,72.0,69.0,29.76,WSW,247,8.0,12.0,90,-99.99,,,-99.99,,2013-05-03 13:52:00,
2013-05-03 10:02:00,72.0,69.0,29.76,WSW,247,8.0,12.0,90,-99.99,,,-99.99,,2013-05-03 14:02:00,
2013-05-03 10:11:00,74.0,70.0,29.77,WSW,245,10.0,15.0,87,-99.99,,,-99.99,,2013-05-03 14:11:00,
2013-05-03 10:22:00,74.0,70.0,29.77,WSW,245,10.0,15.0,87,-99.99,,,-99.99,,2013-05-03 14:22:00,
2013-05-03 10:32:00,74.0,70.0,29.77,WSW,249,9.0,13.0,86,-99.99,,,-99.99,,2013-05-03 14:32:00,
2013-05-03 10:42:00,75.0,69.0,29.77,WSW,253,9.0,14.0,83,-99.99,,,-99.99,,2013-05-03 14:42:00,
2013-05-03 10:52:00,75.0,69.0,29.77,West,260,10.0,17.0,80,-99.99,,,-99.99,,2013-05-03 14:52:00,
2013-05-03 11:01:00,75.0,69.0,29.77,West,260,10.0,17.0,80,-99.99,,,-99.99,,2013-05-03 15:01:00,
2013-05-03 11:11:00,76.0,69.0,29.77,West,260,10.0,16.0,78,-99.99,,,-99.99,,2013-05-03 15:11:00,
2013-05-03 11:22:00,76.0,69.0,29.77,West,260,10.0,16.0,78,-99.99,,,-99.99,,2013-05-03 15:22:00,
2013-05-03 11:32:00,77.0,69.0,29.77,West,261,9.0,14.0,76,-99.99,,,-99.99,,2013-05-03 15:32:00,
2013-05-03 11:43:00,77.0,69.0,29.77,WNW,282,8.0,13.0,75,-99.99,,,-99.99,,2013-05-03 15:43:00,
2013-05-03 11:53:00,77.0,69.0,29.77,WNW,287,8.0,15.0,73,-99.99,,,-99.99,,2013-05-03 15:53:00,
2013-05-03 12:03:00,77.0,69.0,29.77,WNW,287,8.0,15.0,73,-99.99,,,-99.99,,2013-05-03 16:03:00,
2013-05-03 12:13:00,78.0,69.0,29.77,WNW,287,7.0,12.0,73,-99.99,,,-99.99,,2013-05-03 16:13:00,
2013-05-03 12:23:00,78.0,69.0,29.77,WNW,287,7.0,12.0,73,-99.99,,,-99.99,,2013-05-03 16:23:00,
2013-05-03 12:33:00,78.0,69.0,29.78,West,276,6.0,10.0,72,-99.99,,,-99.99,,2013-05-03 16:33:00,
2013-05-03 12:42:00,79.0,69.0,29.77,West,272,5.0,10.0,71,-99.99,,,-99.99,,2013-05-03 16:42:00,
2013-05-03 12:52:00,79.0,69.0,29.77,West,271,7.0,12.0,69,-99.99,,,-99.99,,2013-05-03 16:52:00,
2013-05-03 13:02:00,79.0,69.0,29.77,West,271,7.0,12.0,69,-99.99,,,-99.99,,2013-05-03 17:02:00,
2013-05-03 13:12:00,80.0,69.0,29.77,West,269,6.0,10.0,67,-99.99,,,-99.99,,2013-05-03 17:12:00,
2013-05-03 13:23:00,80.0,69.0,29.77,West,269,6.0,10.0,67,-99.99,,,-99.99,,2013-05-03 17:23:00,
2013-05-03 13:32:00,80.0,69.0,29.76,West,276,6.0,12.0,68,-99.99,,,-99.99,,2013-05-03 17:32:00,
2013-05-03 13:42:00,81.0,69.0,29.75,WNW,293,5.0,10.0,67,-99.99,,,-99.99,,2013-05-03 17:42:00,
2013-05-03 13:52:00,81.0,69.0,29.75,WNW,296,6.0,11.0,66,-99.99,,,-99.99,,2013-05-03 17:52:00,
2013-05-03 14:01:00,81.0,69.0,29.75,WNW,296,6.0,11.0,66,-99.99,,,-99.99,,2013-05-03 18:01:00,
2013-05-03 14:12:00,81.0,69.0,29.75,West,280,5.0,15.0,65,-99.99,,,-99.99,,2013-05-03 18:12:00,
2013-05-03 14:22:00,81.0,69.0,29.75,West,280,5.0,15.0,65,-99.99,,,-99.99,,2013-05-03 18:22:00,
2013-05-03 14:32:00,81.0,69.0,29.74,WNW,300,5.0,8.0,65,-99.99,,,-99.99,,2013-05-03 18:32:00,
2013-05-03 14:42:00,83.0,69.0,29.73,WNW,294,6.0,12.0,63,-99.99,,,-99.99,,2013-05-03 18:42:00,
2013-05-03 14:52:00,83.0,68.0,29.73,NW,305,7.0,13.0,61,-99.99,,,-99.99,,2013-05-03 18:52:00,
2013-05-03 15:01:00,83.0,68.0,29.73,NW,305,7.0,13.0,61,-99.99,,,-99.99,,2013-05-03 19:01:00,
2013-05-03 15:11:00,83.0,69.0,29.72,WNW,297,5.0,12.0,61,-99.99,,,-99.99,,2013-05-03 19:11:00,
2013-05-03 15:21:00,83.0,69.0,29.72,WNW,297,5.0,12.0,61,-99.99,,,-99.99,,2013-05-03 19:21:00,
2013-05-03 15:32:00,83.0,69.0,29.71,West,280,6.0,17.0,61,-99.99,,,-99.99,,2013-05-03 19:32:00,
2013-05-03 15:42:00,84.0,69.0,29.71,SW,235,5.0,10.0,59,-99.99,,,-99.99,,2013-05-03 19:42:00,
2013-05-03 15:52:00,84.0,69.0,29.70,SW,236,4.0,10.0,60,-99.99,,,-99.99,,2013-05-03 19:52:00,
2013-05-03 16:02:00,84.0,69.0,29.70,SW,236,4.0,10.0,60,-99.99,,,-99.99,,2013-05-03 20:02:00,
2013-05-03 16:12:00,84.0,69.0,29.70,WSW,247,3.0,8.0,60,-99.99,,,-99.99,,2013-05-03 20:12:00,
2013-05-03 16:21:00,84.0,69.0,29.70,WSW,247,3.0,8.0,60,-99.99,,,-99.99,,2013-05-03 20:21:00,
2013-05-03 16:32:00,85.0,68.0,29.69,SW,235,3.0,7.0,57,-99.99,,,-99.99,,2013-05-03 20:32:00,
2013-05-03 16:42:00,84.0,68.0,29.69,West,267,5.0,9.0,59,-99.99,,,-99.99,,2013-05-03 20:42:00,
2013-05-03 16:52:00,81.0,69.0,29.68,South,170,8.0,13.0,66,-99.99,,,-99.99,,2013-05-03 20:52:00,
2013-05-03 17:01:00,81.0,69.0,29.68,South,170,8.0,13.0,66,-99.99,,,-99.99,,2013-05-03 21:01:00,
2013-05-03 17:11:00,80.0,70.0,29.68,SE,142,5.0,8.0,71,-99.99,,,-99.99,,2013-05-03 21:11:00,
2013-05-03 17:22:00,80.0,71.0,29.68,SE,129,9.0,15.0,73,-99.99,,,-99.99,,2013-05-03 21:22:00,
2013-05-03 17:33:00,80.0,71.0,29.68,SE,129,9.0,15.0,73,-99.99,,,-99.99,,2013-05-03 21:33:00,
2013-05-03 17:42:00,80.0,71.0,29.68,SE,132,8.0,14.0,73,-99.99,,,-99.99,,2013-05-03 21:42:00,
2013-05-03 17:53:00,79.0,70.0,29.68,SSE,149,12.0,19.0,74,-99.99,,,-99.99,,2013-05-03 21:53:00,
2013-05-03 18:03:00,79.0,70.0,29.68,SSE,149,12.0,19.0,74,-99.99,,,-99.99,,2013-05-03 22:03:00,
2013-05-03 18:13:00,78.0,70.0,29.67,SSE,150,11.0,19.0,75,-99.99,,,-99.99,,2013-05-03 22:13:00,
2013-05-03 18:22:00,78.0,70.0,29.67,SSE,150,11.0,19.0,75,-99.99,,,-99.99,,2013-05-03 22:22:00,
2013-05-03 18:32:00,77.0,71.0,29.68,South,175,11.0,18.0,81,-99.99,,,-99.99,,2013-05-03 22:32:00,
2013-05-03 18:42:00,73.0,71.0,29.69,SSW,193,17.0,26.0,92,-99.99,,,-99.99,,2013-05-03 22:42:00,
2013-05-03 18:52:00,71.0,69.0,29.69,South,179,11.0,18.0,93,-99.99,,,-99.99,,2013-05-03 22:52:00,
2013-05-03 19:02:00,71.0,69.0,29.69,South,179,11.0,18.0,93,-99.99,,,-99.99,,2013-05-03 23:02:00,
2013-05-03 19:11:00,71.0,69.0,29.69,South,184,8.0,12.0,93,-99.99,,,-99.99,,2013-05-03 23:11:00,
2013-05-03 19:22:00,71.0,69.0,29.69,SE,125,4.0,6.0,91,-99.99,,,-99.99,,2013-05-03 23:22:00,
2013-05-03 19:32:00,71.0,69.0,29.69,SE,125,4.0,6.0,91,-99.99,,,-99.99,,2013-05-03 23:32:00,
2013-05-03 19:41:00,71.0,68.0,29.69,SE,128,2.0,6.0,90,-99.99,,,-99.99,,2013-05-03 23:41:00,
2013-05-03 19:52:00,71.0,68.0,29.69,ESE,115,3.0,7.0,89,-99.99,,,-99.99,,2013-05-03 23:52:00,
2013-05-03 20:01:00,71.0,68.0,29.69,ESE,115,3.0,7.0,89,-99.99,,,-99.99,,2013-05-04 00:01:00,
2013-05-03 20:11:00,71.0,70.0,29.70,NNW,331,4.0,6.0,94,-99.99,,,-99.99,,2013-05-04 00:11:00,
2013-05-03 20:23:00,71.0,70.0,29.70,NNW,331,4.0,6.0,94,-99.99,,,-99.99,,2013-05-04 00:23:00,
2013-05-03 20:32:00,71.0,70.0,29.70,NNW,331,4.0,6.0,94,-99.99,,,-99.99,,2013-05-04 00:32:00,
2013-05-03 20:42:00,71.0,69.0,29.72,WNW,282,5.0,8.0,93,-99.99,,,-99.99,,2013-05-04 00:42:00,
2013-05-03 20:52:00,71.0,70.0,29.73,West,266,7.0,11.0,93,-99.99,,,-99.99,,2013-05-04 00:52:00,
2013-05-03 21:01:00,71.0,70.0,29.73,West,266,7.0,11.0,93,-99.99,,,-99.99,,2013-05-04 01:01:00,
2013-05-03 21:11:00,71.0,70.0,29.73,WSW,254,7.0,11.0,95,-99.99,,,-99.99,,2013-05-04 01:11:00,
2013-05-03 21:21:00,71.0,70.0,29.73,WSW,254,7.0,11.0,95,-99.99,,,-99.99,,2013-05-04 01:21:00,
2013-05-03 21:32:00,70.0,69.0,29.73,SSW,211,5.0,8.0,95,-99.99,,,-99.99,,2013-05-04 01:32:00,
2013-05-03 21:41:00,70.0,69.0,29.73,SSW,195,7.0,9.0,95,-99.99,,,-99.99,,2013-05-04 01:41:00,
2013-05-03 21:52:00,70.0,69.0,29.73,SW,214,5.0,7.0,95,-99.99,,,-99.99,,2013-05-04 01:52:00,
2013-05-03 22:02:00,70.0,69.0,29.73,SW,214,5.0,7.0,95,-99.99,,,-99.99,,2013-05-04 02:02:00,
2013-05-03 22:11:00,70.0,69.0,29.73,SW,224,4.0,6.0,96,-99.99,,,-99.99,,2013-05-04 02:11:00,
2013-05-03 22:21:00,70.0,69.0,29.73,SW,224,4.0,6.0,96,-99.99,,,-99.99,,2013-05-04 02:21:00,
2013-05-03 22:32:00,70.0,69.0,29.73,SW,224,4.0,6.0,96,-99.99,,,-99.99,,2013-05-04 02:32:00,
2013-05-03 22:42:00,70.0,69.0,29.74,SSW,196,4.0,6.0,95,-99.99,,,-99.99,,2013-05-04 02:42:00,
2013-05-03 22:52:00,70.0,69.0,29.74,SSW,206,4.0,6.0,95,-99.99,,,-99.99,,2013-05-04 02:52:00,
2013-05-03 23:02:00,70.0,69.0,29.74,SSW,206,4.0,6.0,95,-99.99,,,-99.99,,2013-05-04 03:02:00,
2013-05-03 23:11:00,70.0,69.0,29.73,SSW,195,2.0,8.0,96,-99.99,,,-99.99,,2013-05-04 03:11:00,
2013-05-03 23:22:00,70.0,69.0,29.73,SSW,195,2.0,8.0,96,-99.99,,,-99.99,,2013-05-04 03:22:00,
2013-05-03 23:33:00,70.0,69.0,29.73,South,189,2.0,3.0,96,-99.99,,,-99.99,,2013-05-04 03:33:00,
2013-05-03 23:43:00,70.0,69.0,29.73,South,171,2.0,4.0,96,-99.99,,,-99.99,,2013-05-04 03:43:00,
2013-05-03 23:53:00,70.0,69.0,29.73,SSE,167,2.0,4.0,96,-99.99,,,-99.99,,2013-05-04 03:53:00,